H1 CPF 1 NER 2017 7 28 9 7091 glonass119 H2 1000701 9119 36400 2017 7 28 0 0 0 2017 7 31 23 45 0 900 1 1 0 0 0 H9 10 0 57962 0.00000 0 11464079.837 -22849461.053 846462.159 10 0 57962 900.00000 0 11242329.211 -22851921.490 -2376028.871 10 0 57962 1800.00000 0 10876768.586 -22473203.247 -5552737.195 10 0 57962 2700.00000 0 10423586.277 -21703718.601 -8622437.166 10 0 57962 3600.00000 0 9940643.930 -20547177.729 -11525926.343 10 0 57962 4500.00000 0 9484865.577 -19020595.139 -14207144.203 10 0 57962 5400.00000 0 9109674.172 -17153763.041 -16614235.846 10 0 57962 6300.00000 0 8862581.411 -14988210.980 -18700541.906 10 0 57962 7200.00000 0 8783030.829 -12575691.942 -20425496.751 10 0 57962 8100.00000 0 8900584.411 -9976254.235 -21755418.364 10 0 57962 9000.00000 0 9233529.570 -7255975.422 -22664174.670 10 0 57962 9900.00000 0 9787966.765 -4484448.872 -23133712.676 10 0 57962 10800.00000 0 10557418.845 -1732124.147 -23154438.843 10 0 57962 11700.00000 0 11522982.117 932390.696 -22725441.220 10 0 57962 12600.00000 0 12654016.805 3444954.062 -21854546.425 10 0 57962 13500.00000 0 13909352.037 5748334.177 -20558207.350 10 0 57962 14400.00000 0 15238958.499 7794368.397 -18861220.605 10 0 57962 15300.00000 0 16586021.384 9545746.676 -16796276.084 10 0 57962 16200.00000 0 17889328.354 10977342.464 -14403344.739 10 0 57962 17100.00000 0 19085872.541 12077032.827 -11728914.274 10 0 57962 18000.00000 0 20113560.063 12845970.965 -8825086.478 10 0 57962 18900.00000 0 20913905.804 13298297.855 -5748553.444 10 0 57962 19800.00000 0 21434600.564 13460304.262 -2559473.354 10 0 57962 20700.00000 0 21631837.435 13369078.556 679730.416 10 0 57962 21600.00000 0 21472295.211 13070698.867 3905620.880 10 0 57962 22500.00000 0 20934691.437 12618048.541 7055022.141 10 0 57962 23400.00000 0 20010836.659 12068350.706 10066288.713 10 0 57962 24300.00000 0 18706143.548 11480530.339 12880541.263 10 0 57962 25200.00000 0 17039568.876 10912519.590 15442841.572 10 0 57962 26100.00000 0 15042991.451 10418624.156 17703281.238 10 0 57962 27000.00000 0 12760053.956 10047065.150 19617961.353 10 0 57962 27900.00000 0 10244519.760 9837802.276 21149843.476 10 0 57962 28800.00000 0 7558216.533 9820730.955 22269455.709 10 0 57962 29700.00000 0 4768655.448 10014328.841 22955441.527 10 0 57962 30600.00000 0 1946427.661 10424807.076 23194942.904 10 0 57962 31500.00000 0 -837511.861 11045799.361 22983812.950 10 0 57962 32400.00000 0 -3514559.794 11858598.817 22326657.047 10 0 57962 33300.00000 0 -6021067.185 12832929.439 21236704.758 10 0 57962 34200.00000 0 -8300723.233 13928216.710 19735517.925 10 0 57962 35100.00000 0 -10306624.293 15095301.702 17852543.125 10 0 57962 36000.00000 0 -12002945.994 16278525.206 15624519.103 10 0 57962 36900.00000 0 -13366153.235 17418093.913 13094752.013 10 0 57962 37800.00000 0 -14385702.134 18452629.883 10312273.085 10 0 57962 38700.00000 0 -15064208.794 19321797.756 7330894.924 10 0 57962 39600.00000 0 -15417081.216 19968901.581 4208184.029 10 0 57962 40500.00000 0 -15471632.339 20343344.859 1004368.113 10 0 57962 41400.00000 0 -15265712.744 20402853.260 -2218802.464 10 0 57962 42300.00000 0 -14845920.640 20115369.164 -5399219.109 10 0 57962 43200.00000 0 -14265463.514 19460540.481 -8475585.110 10 0 57962 44100.00000 0 -13581759.593 18430742.352 -11388571.257 10 0 57962 45000.00000 0 -12853877.681 17031589.011 -14081936.834 10 0 57962 45900.00000 0 -12139920.470 15281913.301 -16503596.534 10 0 57962 46800.00000 0 -11494458.897 13213212.564 -18606614.446 10 0 57962 47700.00000 0 -10966123.429 10868580.975 -20350107.156 10 0 57962 48600.00000 0 -10595452.251 8301169.086 -21700039.286 10 0 57962 49500.00000 0 -10413086.505 5572230.525 -22629896.175 10 0 57962 50400.00000 0 -10438389.212 2748833.075 -23121219.959 10 0 57962 51300.00000 0 -10678547.757 -98674.567 -23163997.404 10 0 57962 52200.00000 0 -11128200.427 -2899338.162 -22756889.882 10 0 57962 53100.00000 0 -11769606.178 -5584306.326 -21907298.466 10 0 57962 54000.00000 0 -12573354.275 -8089460.380 -20631259.905 10 0 57962 54900.00000 0 -13499587.668 -10357856.119 -18953172.299 10 0 57962 55800.00000 0 -14499691.823 -12341874.448 -16905352.740 10 0 57962 56700.00000 0 -15518380.169 -14004989.182 -14527432.775 10 0 57962 57600.00000 0 -16496089.436 -15323075.541 -11865601.273 10 0 57962 58500.00000 0 -17371583.580 -16285201.861 -8971708.163 10 0 57962 59400.00000 0 -18084654.857 -16893868.978 -5902246.155 10 0 57962 60300.00000 0 -18578805.218 -17164685.643 -2717230.938 10 0 57962 61200.00000 0 -18803791.125 -17125492.999 520996.522 10 0 57962 62100.00000 0 -18717920.193 -16814975.714 3749019.697 10 0 57962 63000.00000 0 -18289998.608 -16280820.212 6903620.696 10 0 57962 63900.00000 0 -17500843.576 -15577500.783 9923050.471 10 0 57962 64800.00000 0 -16344294.322 -14763790.847 12748266.809 10 0 57962 65700.00000 0 -14827677.589 -13900108.654 15324112.829 10 0 57962 66600.00000 0 -12971707.829 -13045813.623 17600410.405 10 0 57962 67500.00000 0 -10809827.297 -12256570.960 19532945.621 10 0 57962 68400.00000 0 -8387015.665 -11581898.299 21084326.418 10 0 57962 69300.00000 0 -5758121.664 -11062999.171 22224696.057 10 0 57962 70200.00000 0 -2985789.267 -10730974.552 22932289.896 10 0 57962 71100.00000 0 -138067.477 -10605486.466 23193826.789 10 0 57962 72000.00000 0 2714194.672 -10693927.476 23004730.186 10 0 57962 72900.00000 0 5500058.552 -10991127.788 22369177.708 10 0 57962 73800.00000 0 8151199.331 -11479608.702 21299981.324 10 0 57962 74700.00000 0 10604491.226 -12130368.257 19818303.378 10 0 57962 75600.00000 0 12804369.746 -12904162.941 17953216.523 10 0 57962 76500.00000 0 14704876.146 -13753229.310 15741118.019 10 0 57962 77400.00000 0 16271303.022 -14623371.794 13225011.164 10 0 57962 78300.00000 0 17481376.840 -15456328.658 10453668.358 10 0 57962 79200.00000 0 18325932.341 -16192317.407 7480691.950 10 0 57962 80100.00000 0 18809054.266 -16772654.242 4363490.407 10 0 57962 81000.00000 0 18947683.485 -17142339.689 1162188.331 10 0 57962 81900.00000 0 18770705.898 -17252504.271 -2061510.380 10 0 57962 82800.00000 0 18317563.080 -17062613.968 -5245486.221 10 0 57962 83700.00000 0 17636442.644 -16542344.960 -8328374.458 10 0 57962 84600.00000 0 16782122.977 -15673050.388 -11250722.019 10 0 57962 85500.00000 0 15813560.751 -14448758.158 -13956110.707 10 0 57963 0.00000 0 14791320.001 -12876657.454 -16392227.242 10 0 57963 900.00000 0 13774948.212 -10977051.418 -18511861.467 10 0 57963 1800.00000 0 12820406.591 -8782776.570 -20273814.056 10 0 57963 2700.00000 0 11977661.665 -6338107.580 -21643697.836 10 0 57963 3600.00000 0 11288536.841 -3697190.726 -22594616.753 10 0 57963 4500.00000 0 10784915.074 -922065.789 -23107708.871 10 0 57963 5400.00000 0 10487368.546 1919645.142 -23172541.620 10 0 57963 6300.00000 0 10404274.983 4757289.730 -22787349.629 10 0 57963 7200.00000 0 10531460.482 7519874.957 -21959107.945 10 0 57963 8100.00000 0 10852387.132 10138784.162 -20703436.272 10 0 57963 9000.00000 0 11338881.018 12550409.054 -19044332.912 10 0 57963 9900.00000 0 11952373.148 14698586.342 -17013740.485 10 0 57963 10800.00000 0 12645603.585 16536735.678 -14650949.111 10 0 57963 11700.00000 0 13364718.485 18029607.201 -12001846.434 10 0 57963 12600.00000 0 14051671.851 19154562.622 -9118027.812 10 0 57963 13500.00000 0 14646829.548 19902333.479 -6055783.566 10 0 57963 14400.00000 0 15091663.277 20277222.435 -2874983.658 10 0 57963 15300.00000 0 15331417.265 20296737.807 362116.729 10 0 57963 16200.00000 0 15317630.977 19990676.489 3592124.922 10 0 57963 17100.00000 0 15010406.935 19399695.027 6751784.350 10 0 57963 18000.00000 0 14380323.883 18573431.349 9779245.525 10 0 57963 18900.00000 0 13409911.216 17568259.744 12615306.208 10 0 57963 19800.00000 0 12094620.200 16444777.679 15204593.386 10 0 57963 20700.00000 0 10443250.043 15265134.626 17496661.384 10 0 57963 21600.00000 0 8477811.093 14090319.302 19446983.086 10 0 57963 22500.00000 0 6232832.158 12977522.680 21017814.246 10 0 57963 23400.00000 0 3754143.175 11977689.773 22178914.341 10 0 57963 24300.00000 0 1097186.689 11133363.792 22908111.262 10 0 57963 25200.00000 0 -1675068.750 10476912.545 23191700.985 10 0 57963 26100.00000 0 -4494524.020 10029209.575 23024677.082 10 0 57963 27000.00000 0 -7290552.458 9798822.379 22410788.723 10 0 57963 27900.00000 0 -9992701.816 9781738.061 21362429.094 10 0 57963 28800.00000 0 -12533383.359 9961634.026 19900359.368 10 0 57963 29700.00000 0 -14850438.172 10310678.609 18053276.126 10 0 57963 30600.00000 0 -16889476.820 10790824.826 15857232.600 10 0 57963 31500.00000 0 -18605898.490 11355540.661 13354926.367 10 0 57963 32400.00000 0 -19966509.646 11951901.866 10594867.926 10 0 57963 33300.00000 0 -20950678.770 12522959.195 7630446.205 10 0 57963 34200.00000 0 -21550982.810 13010281.348 4518908.477 10 0 57963 35100.00000 0 -21773321.507 13356568.374 1320273.148 10 0 57963 36000.00000 0 -21636497.132 13508227.815 -1903805.295 10 0 57963 36900.00000 0 -21171278.465 13417807.657 -5091199.218 10 0 57963 37800.00000 0 -20418988.406 13046186.109 -8180478.472 10 0 57963 38700.00000 0 -19429673.513 12364427.918 -11112068.509 10 0 57963 39600.00000 0 -18259930.461 11355230.304 -13829375.821 10 0 57963 40500.00000 0 -16970478.147 10013897.827 -16279861.132 10 0 57963 41400.00000 0 -15623574.512 8348804.177 -18416041.434 10 0 57963 42300.00000 0 -14280383.644 6381319.341 -20196402.794 10 0 57963 43200.00000 0 -12998401.150 4145201.900 -21586207.117 10 0 57963 44100.00000 0 -11829043.909 1685477.769 -22558177.436 10 0 57963 45000.00000 0 -10815504.402 -943152.324 -23093047.835 10 0 57963 45900.00000 0 -9990959.593 -3678314.833 -23179966.148 10 0 57963 46800.00000 0 -9377210.600 -6452295.799 -22816739.625 10 0 57963 47700.00000 0 -8983812.260 -9194610.064 -22009916.293 10 0 57963 48600.00000 0 -8807731.796 -11834702.869 -20774697.492 10 0 57963 49500.00000 0 -8833554.024 -14304672.709 -19134680.083 10 0 57963 50400.00000 0 -9034227.521 -16541901.891 -17121430.301 10 0 57963 51300.00000 0 -9372322.990 -18491483.880 -14773894.688 10 0 57963 52200.00000 0 -9801752.614 -20108343.884 -12137657.359 10 0 57963 53100.00000 0 -10269878.655 -21358961.024 -9264056.702 10 0 57963 54000.00000 0 -10719921.716 -22222616.931 -6209178.216 10 0 57963 54900.00000 0 -11093565.107 -22692115.571 -3032743.717 10 0 57963 55800.00000 0 -11333642.254 -22773941.865 203079.776 10 0 57963 56700.00000 0 -11386789.681 -22487851.405 3434925.789 10 0 57963 57600.00000 0 -11205949.086 -21865908.665 6599501.363 10 0 57963 58500.00000 0 -10752608.481 -20951015.729 9634858.836 10 0 57963 59400.00000 0 -9998683.908 -19794996.143 12481638.141 10 0 57963 60300.00000 0 -8927959.323 -18456318.191 15084252.241 10 0 57963 61200.00000 0 -7537022.161 -16997557.466 17391989.880 10 0 57963 62100.00000 0 -5835654.599 -15482709.539 19360012.516 10 0 57963 63000.00000 0 -3846664.634 -13974469.207 20950225.234 10 0 57963 63900.00000 0 -1605165.727 -12531593.262 22132004.950 10 0 57963 64800.00000 0 842662.608 -11206458.785 22882772.996 10 0 57963 65700.00000 0 3441278.938 -10042919.338 23188403.031 10 0 57963 66600.00000 0 6127875.205 -9074547.495 23043459.001 10 0 57963 67500.00000 0 8834773.991 -8323334.667 22451261.560 10 0 57963 68400.00000 0 11492026.927 -7798899.100 21423784.750 10 0 57963 69300.00000 0 14030106.059 -7498231.141 19981387.932 10 0 57963 70200.00000 0 16382577.326 -7405982.235 18152390.699 10 0 57963 71100.00000 0 18488647.083 -7495281.671 15972501.050 10 0 57963 72000.00000 0 20295478.638 -7729043.658 13484109.328 10 0 57963 72900.00000 0 21760185.919 -8061707.638 10735462.291 10 0 57963 73800.00000 0 22851425.068 -8441337.618 7779733.257 10 0 57963 74700.00000 0 23550521.254 -8811992.268 4674005.789 10 0 57963 75600.00000 0 23852086.983 -9116267.100 1478189.290 10 0 57963 76500.00000 0 23764108.666 -9297903.488 -1746114.194 10 0 57963 77400.00000 0 23307499.436 -9304357.015 -4936772.052 10 0 57963 78300.00000 0 22515137.510 -9089219.323 -8032291.880 10 0 57963 79200.00000 0 21430429.880 -8614393.712 -10972980.730 10 0 57963 80100.00000 0 20105460.001 -7851934.445 -13702072.672 10 0 57963 81000.00000 0 18598794.822 -6785473.106 -16166805.043 10 0 57963 81900.00000 0 16973040.205 -5411171.610 -18319424.463 10 0 57963 82800.00000 0 15292244.174 -3738160.333 -20118104.439 10 0 57963 83700.00000 0 13619253.849 -1788440.237 -21527757.728 10 0 57963 84600.00000 0 12013134.336 403750.636 -22520727.889 10 0 57963 85500.00000 0 10526756.005 2793084.121 -23077346.117 10 0 57964 0.00000 0 9204650.356 5324759.177 -23186341.344 10 0 57964 900.00000 0 8081224.789 7936526.828 -22845093.701 10 0 57964 1800.00000 0 7179411.495 10561041.764 -22059724.068 10 0 57964 2700.00000 0 6509810.743 13128446.665 -20845014.800 10 0 57964 3600.00000 0 6070365.257 15569083.045 -19224160.289 10 0 57964 4500.00000 0 5846583.594 17816216.361 -17228348.889 10 0 57964 5400.00000 0 5812305.102 19808661.059 -14896181.659 10 0 57964 6300.00000 0 5930976.498 21493194.078 -12272936.857 10 0 57964 7200.00000 0 6157387.369 22826653.043 -9409693.176 10 0 57964 8100.00000 0 6439791.335 23777628.069 -6362328.234 10 0 57964 9000.00000 0 6722321.969 24327672.961 -3190412.363 10 0 57964 9900.00000 0 6947598.861 24471982.089 43979.106 10 0 57964 10800.00000 0 7059410.092 24219502.582 3277509.486 10 0 57964 11700.00000 0 7005353.482 23592476.321 6446852.976 10 0 57964 12600.00000 0 6739320.530 22625431.544 9489967.115 10 0 57964 13500.00000 0 6223713.865 21363668.392 12347337.139 10 0 57964 14400.00000 0 5431301.039 19861305.000 14963164.787 10 0 57964 15300.00000 0 4346623.954 18178970.035 17286475.662 10 0 57964 16200.00000 0 2966903.213 16381242.606 19272121.841 10 0 57964 17100.00000 0 1302399.219 14533950.750 20881659.396 10 0 57964 18000.00000 0 -623784.045 12701444.924 22084083.925 10 0 57964 18900.00000 0 -2776442.513 10943962.730 22856411.019 10 0 57964 19800.00000 0 -5109529.288 9315195.832 23184092.413 10 0 57964 20700.00000 0 -7567870.585 7860160.144 23061262.336 10 0 57964 21600.00000 0 -10089266.587 6613456.207 22490812.343 10 0 57964 22500.00000 0 -12606888.095 5597989.207 21484296.250 10 0 57964 23400.00000 0 -15051868.404 4824198.169 20061669.993 10 0 57964 24300.00000 0 -17355982.899 4289822.113 18250874.069 10 0 57964 25200.00000 0 -19454306.233 3980208.611 16087268.682 10 0 57964 26100.00000 0 -21287738.717 3869147.970 13612934.004 10 0 57964 27000.00000 0 -22805299.769 3920195.001 10875849.829 10 0 57964 27900.00000 0 -23966096.310 4088420.843 7928970.482 10 0 57964 28800.00000 0 -24740887.508 4322520.420 4829212.367 10 0 57964 29700.00000 0 -25113183.875 4567187.114 1636372.485 10 0 57964 30600.00000 0 -25079837.573 4765655.933 -1588002.858 10 0 57964 31500.00000 0 -24651101.101 4862310.006 -4781779.195 10 0 57964 32400.00000 0 -23850152.887 4805242.911 -7883404.789 10 0 57964 33300.00000 0 -22712109.493 4548671.179 -10833070.995 10 0 57964 34200.00000 0 -21282564.593 4055097.356 -13573841.899 10 0 57964 35100.00000 0 -19615713.838 3297133.784 -16052733.598 10 0 57964 36000.00000 0 -17772141.324 2258910.673 -18221724.123 10 0 57964 36900.00000 0 -15816357.165 937008.463 -20038675.800 10 0 57964 37800.00000 0 -13814185.990 -659126.696 -21468153.136 10 0 57964 38700.00000 0 -11830112.622 -2507304.902 -22482120.635 10 0 57964 39600.00000 0 -9924693.617 -4573250.765 -23060506.502 10 0 57964 40500.00000 0 -8152141.382 -6811774.998 -23191620.161 10 0 57964 41400.00000 0 -6558181.273 -9168415.162 -22872413.625 10 0 57964 42300.00000 0 -5178271.894 -11581481.434 -22108579.121 10 0 57964 43200.00000 0 -4036264.409 -13984425.786 -20914478.233 10 0 57964 44100.00000 0 -3143559.190 -16308438.489 -19312900.750 10 0 57964 45000.00000 0 -2498797.686 -18485164.826 -17334654.794 10 0 57964 45900.00000 0 -2088105.061 -20449428.677 -15017993.397 10 0 57964 46800.00000 0 -1885875.562 -22141847.730 -12407886.330 10 0 57964 47700.00000 0 -1856069.097 -23511228.426 -9555149.931 10 0 57964 48600.00000 0 -1953964.781 -24516637.080 -6515451.311 10 0 57964 49500.00000 0 -2128296.677 -25129056.757 -3348206.776 10 0 57964 50400.00000 0 -2323679.545 -25332556.947 -115397.549 10 0 57964 51300.00000 0 -2483218.905 -25124924.132 3119671.763 10 0 57964 52200.00000 0 -2551191.096 -24517725.037 6293644.686 10 0 57964 53100.00000 0 -2475675.599 -23535799.447 9344385.998 10 0 57964 54000.00000 0 -2211023.930 -22216204.844 12212228.145 10 0 57964 54900.00000 0 -1720056.830 -20606659.391 14841163.407 10 0 57964 55800.00000 0 -975893.921 -18763551.845 17179955.836 10 0 57964 56700.00000 0 36663.319 -16749605.632 19183149.510 10 0 57964 57600.00000 0 1320254.255 -14631298.827 20811952.624 10 0 57964 58500.00000 0 2864623.887 -12476151.527 22034980.322 10 0 57964 59400.00000 0 4646842.330 -10349996.626 22828843.034 10 0 57964 60300.00000 0 6632067.654 -8314349.385 23178570.855 10 0 57964 61200.00000 0 8774817.574 -6423985.668 23077868.321 10 0 57964 62100.00000 0 11020694.422 -4724828.439 22529197.660 10 0 57964 63000.00000 0 13308489.405 -3252227.958 21543691.998 10 0 57964 63900.00000 0 15572577.001 -2029703.770 20140903.184 10 0 57964 64800.00000 0 17745499.393 -1068196.581 18348391.753 10 0 57964 65700.00000 0 19760633.886 -365856.675 16201169.036 10 0 57964 66600.00000 0 21554833.701 91626.586 13741003.734 10 0 57964 67500.00000 0 23070934.556 330171.776 11015607.117 10 0 57964 68400.00000 0 24260025.490 385967.526 8077712.687 10 0 57964 69300.00000 0 25083392.410 303707.602 4984067.562 10 0 57964 70200.00000 0 25514056.463 134473.701 1794353.933 10 0 57964 71100.00000 0 25537845.733 -66645.510 -1429940.257 10 0 57964 72000.00000 0 25153957.626 -243100.335 -4626681.494 10 0 57964 72900.00000 0 24374989.644 -339485.779 -7734261.583 10 0 57964 73800.00000 0 23226437.478 -304099.602 -10692759.034 10 0 57964 74700.00000 0 21745680.587 -91347.186 -13445070.687 10 0 57964 75600.00000 0 19980495.854 336106.357 -15937993.959 10 0 57964 76500.00000 0 17987158.834 1005526.459 -18123240.639 10 0 57964 77400.00000 0 15828208.810 1932717.914 -19958363.984 10 0 57964 78300.00000 0 13569967.607 3121111.942 -21407582.141 10 0 57964 79200.00000 0 11279912.427 4561372.226 -22442482.193 10 0 57964 80100.00000 0 9024009.574 6231539.789 -23042590.731 10 0 57964 81000.00000 0 6864118.135 8097714.863 -23195798.766 10 0 57964 81900.00000 0 4855570.712 10115251.802 -22898630.897 10 0 57964 82800.00000 0 3045032.039 12230421.612 -22156351.060 10 0 57964 83700.00000 0 1468725.672 14382476.737 -20982899.956 10 0 57964 84600.00000 0 151104.470 16506035.123 -19400662.192 10 0 57964 85500.00000 0 -895977.186 18533685.917 -17440064.595 10 0 57965 0.00000 0 -1673552.333 20398708.600 -15139010.680 10 0 57965 900.00000 0 -2195276.959 22037790.923 -12542159.583 10 0 57965 1800.00000 0 -2486621.803 23393630.292 -9700062.885 10 0 57965 2700.00000 0 -2583552.747 24417305.378 -6668174.323 10 0 57965 3600.00000 0 -2530756.588 25070316.298 -3505753.001 10 0 57965 4500.00000 0 -2379487.734 25326202.660 -274682.617 10 0 57965 5400.00000 0 -2185129.788 25171668.712 2961767.852 10 0 57965 6300.00000 0 -2004578.581 24607165.491 6140214.830 10 0 57965 7200.00000 0 -1893561.537 23646904.123 9198433.836 10 0 57965 8100.00000 0 -1904011.217 22318299.618 12076607.847 10 0 57965 9000.00000 0 -2081608.251 20660869.771 14718522.767 10 0 57965 9900.00000 0 -2463600.996 18724637.864 17072683.874 10 0 57965 10800.00000 0 -3076996.494 16568109.376 19093329.683 10 0 57965 11700.00000 0 -3937200.339 14255911.103 20741322.582 10 0 57965 12600.00000 0 -5047162.789 11856194.992 21984898.944 10 0 57965 13500.00000 0 -6397065.997 9437918.143 22800265.309 10 0 57965 14400.00000 0 -7964563.547 7068114.383 23172030.961 10 0 57965 15300.00000 0 -9715559.764 4809271.963 23093471.096 10 0 57965 16200.00000 0 -11605493.498 2716925.895 22566618.455 10 0 57965 17100.00000 0 -13581070.328 837563.115 21602184.780 10 0 57965 18000.00000 0 -15582368.874 -793075.421 20219316.585 10 0 57965 18900.00000 0 -17545232.254 -2151229.131 18445192.652 10 0 57965 19800.00000 0 -19403844.836 -3225841.790 16314473.134 10 0 57965 20700.00000 0 -21093387.550 -4018749.456 13868612.498 10 0 57965 21600.00000 0 -22552662.810 -4544328.770 11155050.364 10 0 57965 22500.00000 0 -23726581.946 -4828623.864 8226296.000 10 0 57965 23400.00000 0 -24568414.131 -4907990.932 5138923.671 10 0 57965 24300.00000 0 -25041705.907 -4827318.754 1952497.123 10 0 57965 25200.00000 0 -25121793.881 -4637900.136 -1271557.683 10 0 57965 26100.00000 0 -24796849.587 -4395042.947 -4471111.697 10 0 57965 27000.00000 0 -24068414.344 -4155519.638 -7584503.636 10 0 57965 27900.00000 0 -22951402.247 -3974960.478 -10551702.327 10 0 57965 28800.00000 0 -21473570.673 -3905297.954 -13315440.295 10 0 57965 29700.00000 0 -19674478.901 -3992367.837 -15822298.899 10 0 57965 30600.00000 0 -17603975.889 -4273766.384 -18023725.939 10 0 57965 31500.00000 0 -15320277.291 -4777053.118 -19876967.399 10 0 57965 32400.00000 0 -12887708.388 -5518375.146 -21345896.334 10 0 57965 33300.00000 0 -10374203.464 -6501572.366 -22401723.085 10 0 57965 34200.00000 0 -7848662.562 -7717803.702 -23023572.695 10 0 57965 35100.00000 0 -5378272.995 -9145713.653 -23198917.213 10 0 57965 36000.00000 0 -3025905.259 -10752136.407 -22923852.708 10 0 57965 36900.00000 0 -847691.014 -12493312.440 -22203213.202 10 0 57965 37800.00000 0 1109115.753 -14316571.003 -21050516.456 10 0 57965 38700.00000 0 2807904.103 -16162411.730 -19487739.498 10 0 57965 39600.00000 0 4224022.321 -17966900.865 -17544925.187 10 0 57965 40500.00000 0 5345587.555 -19664283.158 -15259624.531 10 0 57965 41400.00000 0 6173752.589 -21189699.942 -12676183.263 10 0 57965 42300.00000 0 6722416.369 -22481897.952 -9844885.020 10 0 57965 43200.00000 0 7017389.107 -23485812.533 -6820967.111 10 0 57965 44100.00000 0 7095046.671 -24154913.264 -3663528.434 10 0 57965 45000.00000 0 7000531.775 -24453209.387 -434352.278 10 0 57965 45900.00000 0 6785579.906 -24356826.866 2803330.741 10 0 57965 46800.00000 0 6506064.949 -23855087.439 5986112.465 10 0 57965 47700.00000 0 6219372.173 -22951041.887 9051681.434 10 0 57965 48600.00000 0 5981714.017 -21661434.068 11940073.185 10 0 57965 49500.00000 0 5845506.527 -20016097.438 14594868.967 10 0 57965 50400.00000 0 5856921.147 -18056811.008 16964316.701 10 0 57965 51300.00000 0 6053718.299 -15835665.284 19002350.428 10 0 57965 52200.00000 0 6463456.040 -13413009.831 20669487.470 10 0 57965 53100.00000 0 7102149.872 -10855071.800 21933585.829 10 0 57965 54000.00000 0 7973439.547 -8231347.965 22770448.213 10 0 57965 54900.00000 0 9068296.204 -5611881.414 23164262.852 10 0 57965 55800.00000 0 10365279.709 -3064537.724 23107875.080 10 0 57965 56700.00000 0 11831332.610 -652393.977 22602887.410 10 0 57965 57600.00000 0 13423074.667 1568652.136 21659589.275 10 0 57965 58500.00000 0 15088541.335 3551956.199 20296720.788 10 0 57965 59400.00000 0 16769291.774 5261801.349 18541077.785 10 0 57965 60300.00000 0 18402797.436 6674607.596 16426967.948 10 0 57965 61200.00000 0 19925011.510 7779630.353 13995530.086 10 0 57965 62100.00000 0 21273012.932 8579123.574 11293930.617 10 0 57965 63000.00000 0 22387616.357 9087964.690 8374452.856 10 0 57965 63900.00000 0 23215841.433 9332760.115 5293496.317 10 0 57965 64800.00000 0 23713140.895 9350470.952 2110504.227 10 0 57965 65700.00000 0 23845297.001 9186617.483 -1113161.676 10 0 57965 66600.00000 0 23589909.351 8893137.635 -4315379.162 10 0 57965 67500.00000 0 22937413.539 8525988.346 -7434436.273 10 0 57965 68400.00000 0 21891588.900 8142588.798 -10410194.555 10 0 57965 69300.00000 0 20469533.939 7799210.856 -13185224.534 10 0 57965 70200.00000 0 18701109.253 7548424.185 -15705893.700 10 0 57965 71100.00000 0 16627868.999 7436701.560 -17923387.893 10 0 57965 72000.00000 0 14301522.518 7502283.763 -19794647.705 10 0 57965 72900.00000 0 11781986.689 7773393.383 -21283202.811 10 0 57965 73800.00000 0 9135106.290 8266873.250 -22359888.391 10 0 57965 74700.00000 0 6430133.682 8987308.426 -23003429.348 10 0 57965 75600.00000 0 3737069.355 9926671.423 -23200879.982 10 0 57965 76500.00000 0 1123971.459 11064509.140 -22947908.792 10 0 57965 77400.00000 0 -1345655.247 12368667.804 -22248920.512 10 0 57965 78300.00000 0 -3615282.860 13796529.722 -21117010.187 10 0 57965 79200.00000 0 -5637494.742 15296713.883 -19573747.040 10 0 57965 80100.00000 0 -7375740.283 16811172.167 -17648789.237 10 0 57965 81000.00000 0 -8805634.621 18277595.259 -15379334.125 10 0 57965 81900.00000 0 -9915746.542 19632027.913 -12809412.244 10 0 57965 82800.00000 0 -10707839.053 20811582.949 -9989037.233 10 0 57965 83700.00000 0 -11196550.711 21757137.781 -6973227.497 10 0 57965 84600.00000 0 -11408530.065 22415896.897 -3820918.943 10 0 57965 85500.00000 0 -11381059.699 22743708.501 -593791.426 99